[[{"header":{"parameterUnit":"m.s-1","parameterCategory":1,"la1":30.2991,"la2":30.254,"lo1":-89.0895,"lo2":-89.0444,"dy":0.0017,"dx":0.0017,"nx":28,"ny":28,"refTime":"2025-12-30T09:00:00:Z","depth":0,"parameterNumber":2,"parameterNumberName":"U-component_of_WINDS"},"data":[0,0,0,0,0,0,0,0,0,0,0,0,0,0,0,0,0,0,0,0,0,0,0,0,0,0,0,0,0,0,0,0,0,0,0,0,0,0,0,0,0,0,0,0,0,0,0,0,0,0,0,0,0,0,0,0,0,0,5.2856,5.2858,0,5.3099,5.3101,5.3104,5.306,5.3056,5.3052,5.3048,5.3298,5.3308,5.3319,0,0,0,0,0,0,0,0,0,0,0,0,0,5.2353,5.2362,5.2855,5.2858,5.2862,5.3098,5.3102,5.3105,5.3061,5.3056,5.3051,5.3046,5.3295,5.3307,5.332,0,0,0,0,0,0,0,0,0,0,0,0,0,5.2581,5.2366,5.2855,5.2868,5.2872,5.3098,5.3102,5.3106,5.3062,5.3056,5.3049,5.3043,5.329,5.3306,5.3322,5.355,0,0,5.3371,5.3378,0,0,0,0,0,0,0,0,5.2568,5.26,5.2863,5.2868,5.2872,5.3042,5.3016,5.3255,5.3064,5.299,5.3048,5.304,5.3218,5.324,5.33,5.3562,5.3572,5.3372,5.3382,5.3389,5.3393,0,0,0,0,0,0,0,5.2553,5.2589,5.2952,5.2867,5.2873,5.2862,5.2887,5.3061,5.3138,5.2996,5.2993,5.3023,5.322,5.3284,5.3305,5.3576,5.3372,5.3386,5.3396,5.3402,5.4035,5.4042,0,0,0,0,0,0,5.2533,5.2576,5.2944,5.2959,5.2701,5.2876,5.2904,5.2994,5.3135,5.3151,5.3028,5.302,5.326,5.3287,5.3314,5.3589,5.3389,5.3404,5.3413,5.4028,5.4037,5.4044,0,0,0,0,0,0,5.2522,5.2566,5.2934,5.2767,5.2813,5.2892,5.2993,5.3003,5.3067,5.316,5.3173,5.308,5.3256,5.3291,5.3491,5.3597,5.3411,5.3425,5.4019,5.4031,5.4041,5.4141,0,0,0,0,0,0,5.2508,5.2562,5.265,5.2769,5.2822,5.3108,5.3,5.3012,5.3095,5.3086,5.3212,5.3227,5.3254,5.3467,5.3507,5.3615,5.3438,5.401,5.4024,5.4037,5.4128,5.4154,5.4175,0,0,0,0,0,5.249,5.2669,5.2655,5.2699,5.2933,5.3114,5.3144,5.3171,5.3104,5.3192,5.3251,5.3223,5.3579,5.3488,5.3532,5.3647,5.4004,5.402,5.4036,5.4118,5.4149,5.4175,0,0,0,0,0,0,5.2562,5.2685,5.267,5.2894,5.2993,5.3106,5.3219,5.3203,5.3324,5.3312,5.334,5.3369,5.3571,5.3629,5.3526,5.3874,5.3782,5.3808,5.3829,5.3859,5.3882,5.3863,5.3451,0,0,0,0,0,5.2603,5.2739,5.284,5.3027,5.3078,5.314,5.322,5.3231,5.3336,5.3378,5.3452,5.3554,5.3689,5.3777,5.3907,5.4137,5.4162,5.4238,5.4261,5.428,5.4301,5.4425,5.4459,5.4098,5.4098,5.4097,0,0,5.2691,5.2775,5.286,5.3044,5.3122,5.3262,5.3176,5.3328,5.3431,5.3401,5.3593,5.3651,5.3768,5.3983,5.4081,5.4038,5.4407,5.43,5.4315,5.4326,5.4445,5.4479,5.451,5.4109,5.4107,5.4105,0,0,5.2921,5.3,5.3163,5.3243,5.3363,5.3403,5.3442,5.3557,5.3594,5.3787,5.3767,5.389,5.4123,5.4206,5.4278,5.4538,5.4516,5.458,5.4702,5.4822,5.4851,5.4876,5.4967,5.4999,5.4601,5.4602,5.4602,0,5.3015,5.3225,5.3249,5.3403,5.3484,5.3462,5.3627,5.3704,5.3861,5.3917,5.3865,5.4154,5.4232,5.4465,5.4528,5.4588,5.4633,5.4565,5.4845,5.487,5.4894,5.4981,5.5016,5.4608,5.4608,5.4607,5.4606,0,5.3333,5.3479,5.3597,5.3746,5.3841,5.4,5.4048,5.414,5.4144,5.4189,5.4385,5.4476,5.4622,5.4679,5.4685,5.4913,5.4881,5.4838,5.4745,5.4935,5.5017,5.5051,5.4618,5.4616,5.4614,5.4612,0,0,5.3616,5.3776,5.3819,5.3886,5.4016,5.4128,5.4286,5.4428,5.4506,5.4614,5.4745,5.4942,5.4901,5.4983,5.4998,5.5104,5.5301,5.5046,5.5049,5.5089,5.5556,5.5586,5.5625,5.5287,5.5294,5.5299,5.5545,0,5.3858,5.4134,5.416,5.4408,5.4542,5.4523,5.4659,5.4753,5.4799,5.4919,5.497,5.5107,5.5044,5.5093,5.5197,5.5255,5.5395,5.5238,5.5409,5.5415,5.5379,5.5668,5.5702,5.593,5.5577,5.5583,5.5587,0,5.4176,5.4292,5.4553,5.4662,5.4719,5.4842,5.4973,5.5088,5.5194,5.5219,5.5311,5.5311,5.5471,5.5373,5.5595,5.5487,5.5559,5.5597,5.5607,5.5623,5.5511,5.569,5.6003,5.6037,5.5638,5.5634,5.563,0,5.4354,5.4576,5.476,5.4818,5.495,5.5036,5.5095,5.5194,5.5277,5.5392,5.5446,5.5579,5.5651,5.5754,5.5789,5.5715,5.6008,5.5913,5.6033,5.6032,5.6095,5.609,5.6422,5.6144,5.6143,5.6143,5.6142,0,5.462,5.478,5.4841,5.4954,5.5132,5.516,5.5336,5.539,5.5479,5.5601,5.5594,5.5709,5.5749,5.5872,5.59,5.6078,5.6111,5.6136,5.6141,5.6136,5.6132,5.6182,5.6166,5.6152,5.615,5.6148,5.6146,0,5.4848,5.4896,5.5095,5.5203,5.5234,5.536,5.5452,5.5561,5.5604,5.576,5.5798,5.5867,5.601,5.6055,5.6229,5.6247,5.6454,5.6447,5.6418,5.6418,5.6534,5.6522,5.6909,5.696,5.665,5.6653,5.6655,0,5.5014,5.5136,5.5257,5.5338,5.54,5.5532,5.5616,5.5648,5.5736,5.5864,5.5957,5.6099,5.6213,5.6443,5.6508,5.664,5.6634,5.676,5.6654,5.6644,5.6634,5.6625,5.6636,5.678,5.6783,5.6786,5.6788,0,5.5303,5.5319,5.5441,5.5571,5.5671,5.5775,5.5875,5.5942,5.5988,5.6088,5.6233,5.6322,5.6498,5.6637,5.6771,5.6832,5.6818,5.6821,5.6855,5.685,5.6827,5.6839,5.6471,5.6812,5.6809,5.6808,5.6806,5.6805,5.5504,5.561,5.5711,5.5846,5.5925,5.6018,5.6124,5.618,5.6302,5.6447,5.6459,5.6615,5.6716,5.6894,5.6961,5.7084,5.7048,5.7098,5.711,5.7122,5.713,5.6809,5.7109,5.7108,5.7108,5.7107,5.7107,0,5.579,5.5853,5.5977,5.6116,5.6222,5.6199,5.6308,5.6398,5.6536,5.6631,5.6743,5.691,5.7045,5.712,5.7254,5.7338,5.7335,5.7372,5.7365,5.7379,5.7156,5.7111,5.7372,5.7372,5.7372,5.7372,5.7372,5.7372,5.5951,5.613,5.6158,5.6375,5.6438,5.659,5.6654,5.674,5.6815,5.7001,5.7113,5.716,5.7247,5.7387,5.751,5.7528,5.7577,5.7619,5.7633,5.7423,5.7395,5.7369,5.7328,5.763,5.763,5.7846,5.7848,5.7849]},{"header":{"parameterUnit":"m.s-1","parameterCategory":1,"la1":30.2991,"la2":30.254,"lo1":-89.0895,"lo2":-89.0444,"dy":0.0017,"dx":0.0017,"nx":28,"ny":28,"refTime":"2025-12-30T09:00:00:Z","depth":0,"parameterNumber":3,"parameterNumberName":"V-component_of_WINDS"},"data":[0,0,0,0,0,0,0,0,0,0,0,0,0,0,0,0,0,0,0,0,0,0,0,0,0,0,0,0,0,0,0,0,0,0,0,0,0,0,0,0,0,0,0,0,0,0,0,0,0,0,0,0,0,0,0,0,0,0,1.0464,1.0464,0,1.0435,1.0435,1.0434,1.0385,1.0384,1.0383,1.0383,1.0353,1.0353,1.0353,0,0,0,0,0,0,0,0,0,0,0,0,0,1.0475,1.0476,1.0464,1.0464,1.0463,1.0435,1.0435,1.0434,1.0385,1.0384,1.0383,1.0382,1.0353,1.0353,1.0353,0,0,0,0,0,0,0,0,0,0,0,0,0,1.0461,1.0476,1.0464,1.0436,1.0433,1.0435,1.0435,1.0434,1.0386,1.0384,1.0383,1.0382,1.0353,1.0353,1.0353,1.0381,0,0,1.0353,1.0353,0,0,0,0,0,0,0,0,1.0462,1.0461,1.044,1.0438,1.0434,1.0412,1.0428,1.0416,1.0386,1.0404,1.0383,1.0381,1.0374,1.0372,1.0369,1.0379,1.0378,1.0353,1.0353,1.0353,1.0353,0,0,0,0,0,0,0,1.0463,1.0462,1.0453,1.044,1.0436,1.0424,1.042,1.0425,1.0397,1.0402,1.0398,1.0396,1.0372,1.0369,1.0368,1.0378,1.0353,1.0353,1.0353,1.0353,1.0406,1.0407,0,0,0,0,0,0,1.0468,1.0463,1.0453,1.0452,1.0445,1.0425,1.042,1.0421,1.0396,1.0391,1.0397,1.0393,1.037,1.0368,1.0367,1.0397,1.0353,1.0353,1.0353,1.0405,1.0406,1.0408,0,0,0,0,0,0,1.0469,1.0468,1.0455,1.0456,1.0453,1.0426,1.0427,1.0421,1.0419,1.0392,1.0387,1.04,1.0369,1.0367,1.0377,1.0395,1.0353,1.0353,1.0403,1.0405,1.0407,1.0458,0,0,0,0,0,0,1.0469,1.0468,1.0479,1.0457,1.0454,1.0466,1.0428,1.0421,1.0419,1.0414,1.0394,1.0389,1.0368,1.0377,1.0377,1.0395,1.0353,1.0401,1.0404,1.0406,1.0454,1.0461,1.0467,0,0,0,0,0,1.047,1.0495,1.048,1.0479,1.0467,1.0467,1.0465,1.044,1.0421,1.0431,1.0414,1.039,1.0393,1.0379,1.0378,1.0396,1.04,1.0403,1.0406,1.0451,1.046,1.0467,0,0,0,0,0,0,1.0521,1.0492,1.0475,1.0494,1.0483,1.0459,1.0472,1.045,1.0445,1.0441,1.0409,1.0405,1.0419,1.0408,1.0393,1.042,1.0393,1.0396,1.0427,1.0435,1.0441,1.0444,1.0353,0,0,0,0,0,1.0535,1.0538,1.0512,1.0531,1.0526,1.05,1.0499,1.048,1.0468,1.0464,1.0447,1.0436,1.0434,1.0434,1.0431,1.0452,1.0446,1.0464,1.047,1.0475,1.0479,1.0487,1.0494,1.0418,1.0418,1.0418,0,0,1.0563,1.0547,1.0551,1.0541,1.0531,1.0534,1.0497,1.0502,1.0504,1.0464,1.0473,1.046,1.0445,1.0461,1.0466,1.0452,1.0498,1.0479,1.0484,1.0484,1.0491,1.0498,1.0505,1.042,1.042,1.0419,0,0,1.0616,1.0605,1.0619,1.0608,1.0593,1.0575,1.0578,1.0556,1.0546,1.0554,1.0524,1.0525,1.0523,1.0513,1.0508,1.0554,1.0531,1.0554,1.0587,1.0596,1.0602,1.0607,1.0623,1.0629,1.0557,1.0557,1.0557,0,1.0653,1.0657,1.0629,1.0635,1.0631,1.0594,1.0608,1.0599,1.0583,1.0581,1.0565,1.056,1.0548,1.0559,1.057,1.0567,1.0569,1.0556,1.0604,1.0608,1.0613,1.0627,1.0633,1.056,1.0559,1.0559,1.0559,0,1.0703,1.0706,1.0719,1.0704,1.0701,1.0711,1.0683,1.0683,1.0664,1.0647,1.0654,1.0637,1.063,1.0631,1.0612,1.0639,1.063,1.0609,1.0581,1.0623,1.0636,1.0642,1.0564,1.0563,1.0562,1.0561,0,0,1.0789,1.0757,1.0762,1.0754,1.0733,1.0734,1.0742,1.0734,1.0734,1.0723,1.0728,1.0726,1.0706,1.07,1.0679,1.0687,1.0723,1.0664,1.0664,1.0676,1.075,1.0766,1.0773,1.0707,1.0708,1.0709,1.0751,0,1.0838,1.0849,1.0823,1.084,1.0842,1.0806,1.0812,1.0799,1.0783,1.0781,1.0762,1.0761,1.0735,1.0731,1.0736,1.0718,1.0737,1.0714,1.0711,1.0711,1.0716,1.078,1.0797,1.0838,1.0756,1.0757,1.0757,0,1.0897,1.0888,1.0906,1.0882,1.0882,1.0888,1.0877,1.0876,1.086,1.0847,1.0839,1.0815,1.0819,1.0791,1.0796,1.0781,1.0777,1.0767,1.0768,1.0767,1.0737,1.078,1.085,1.0856,1.0765,1.0765,1.0764,0,1.0957,1.0951,1.096,1.0954,1.0926,1.0931,1.092,1.0902,1.0898,1.0888,1.0885,1.0876,1.0871,1.0864,1.0837,1.082,1.0845,1.0815,1.0834,1.0834,1.0841,1.0841,1.0911,1.0839,1.0839,1.0839,1.0839,0,1.1014,1.1027,1.0987,1.0993,1.1004,1.0972,1.0985,1.097,1.0954,1.0955,1.0923,1.0924,1.0889,1.0886,1.0865,1.0871,1.087,1.0859,1.0853,1.0862,1.0863,1.086,1.0856,1.0841,1.084,1.084,1.084,0,1.1085,1.1059,1.1066,1.1038,1.1032,1.1042,1.1017,1.1021,1.1001,1.1003,1.1002,1.0971,1.0966,1.0939,1.0927,1.0913,1.0926,1.0915,1.0932,1.0928,1.0948,1.0947,1.1019,1.1026,1.095,1.095,1.0951,0,1.1124,1.1132,1.1104,1.1103,1.1093,1.1091,1.1086,1.1054,1.1051,1.1031,1.1037,1.1029,1.1021,1.1014,1.0991,1.0981,1.0969,1.0995,1.0968,1.0976,1.0969,1.0969,1.0969,1.1001,1.1002,1.1003,1.1004,0,1.1194,1.118,1.1175,1.1165,1.116,1.115,1.1139,1.1139,1.1103,1.1101,1.1095,1.1089,1.1076,1.1068,1.1054,1.1041,1.1016,1.1012,1.1016,1.1025,1.1035,1.1029,1.0948,1.1011,1.101,1.101,1.101,1.1009,1.1249,1.1254,1.1235,1.123,1.1217,1.1207,1.1208,1.1188,1.1183,1.117,1.1151,1.1148,1.1129,1.1107,1.1096,1.1092,1.1078,1.1083,1.1085,1.1087,1.1091,1.1035,1.1089,1.1089,1.1089,1.1089,1.1088,0,1.1318,1.1303,1.1299,1.1283,1.1278,1.1254,1.1239,1.1237,1.1234,1.1218,1.1211,1.1203,1.1195,1.1169,1.1158,1.1159,1.1148,1.1158,1.1157,1.1154,1.1104,1.1102,1.1167,1.1167,1.1167,1.1167,1.1167,1.1167,1.1353,1.136,1.1343,1.1342,1.1327,1.1324,1.1317,1.1306,1.1293,1.1286,1.1279,1.1262,1.1242,1.1229,1.1219,1.1212,1.1209,1.1223,1.1212,1.1166,1.1158,1.1151,1.1149,1.1222,1.1222,1.1262,1.1262,1.1262]}]]